Regional Weather Roundup
Issued by NWS Albany, NY

Home | Current Version | Previous Version | Graphics & Text | Print | Product List | Glossary Off
Versions: 1 2 3 4 5 6 7 8 9 10 11 12 13 14 15 16 17 18 19 20 21 22 23 24 25 26 27 28

000
ASUS41 KALY 181010
RWRALY

NEW YORK STATE HOURLY WEATHER ROUNDUP
NATIONAL WEATHER SERVICE ALBANY NY
600 AM EDT FRI APR 18 2014

NOTE: "FAIR" INDICATES FEW OR NO CLOUDS BELOW 12,000 FEET WITH NO
SIGNIFICANT WEATHER AND/OR NO OBSTRUCTIONS TO VISIBILITY.

NYZ032-033-038>043-046>054-057>066-NYZ062>081-181100-
EAST


CITY           SKY/WX    TMP DP  RH WIND       PRES   REMARKS
ALBANY         PTCLDY    28  20  71 CALM      30.50F
GLENS FALLS    CLEAR    N/A N/A N/A CALM      30.50F
POUGHKEEPSIE   CLEAR     32  23  69 CALM      30.52R
NEWBURGH       CLEAR     32  28  86 E12       30.52F WCI  23
MONTGOMERY     PTCLDY    29  26  89 CALM      30.51R
WHITE PLAINS   CLEAR     31  23  72 NE5       30.51R WCI  26
ISLIP          CLOUDY    35  27  72 NE9       30.50S WCI  28
NEW YORK CITY  MOCLDY    36  25  64 NE13      30.53R WCI  27
CENTRAL PARK   CLOUDY    36  26  67 NE10      30.54R WCI  28
$$

NYZ005>009-017-018-044>046-055-056-181100-
CENTRAL


CITY           SKY/WX    TMP DP  RH WIND       PRES   REMARKS
FULTON         CLEAR     38  26  62 SE9       30.38R WCI  31
SYRACUSE       PTCLDY    36  24  62 E7        30.41R WCI  30
ROME           CLEAR     32  22  66 SE8       30.46S WCI  25
ELMIRA         CLEAR     33  25  72 CALM      30.42R
BINGHAMTON     CLEAR     31  24  75 S6        30.40R WCI  25
MONTICELLO     CLOUDY    28  25  86 CALM      30.47R
$$

NYZ026>034-041>043-181100-
NORTH


CITY           SKY/WX    TMP DP  RH WIND       PRES   REMARKS
WATERTOWN      CLEAR     41  23  48 VRB3      30.37S
FORT DRUM      NOT AVBL
MASSENA        MOCLDY    33  22  63 SE5       30.40F WCI  29
SARANAC LAKE   PTCLDY    21  19  92 CALM      30.37F
PLATTSBURGH    PTCLDY    34  19  54 S8        30.47F WCI  27
$$

NYZ001>004-010>016-019>021-181100-
WEST


CITY           SKY/WX    TMP DP  RH WIND       PRES   REMARKS
NIAGARA FALLS  MOCLDY    44  28  53 S9        30.26F
BUFFALO        MOCLDY    44  28  53 SE8       30.27F
DUNKIRK        PTCLDY    47  27  45 S15G33    30.27S
JAMESTOWN      PTCLDY    37  27  65 S9        30.30F WCI  31
WELLSVILLE     CLEAR     35  26  69 S7        30.34F WCI  29
ROCHESTER      PTCLDY    43  29  57 S8        30.32S
PENN YAN       CLEAR     37  28  70 S10       30.37R WCI  30
$$

             KEY
       WCI = WIND CHILL INDEX
       VSB = VISIBILITY
       HX  = HEAT INDEX
$$



USA.gov is the U.S. government's official web portal to all federal, state and local government web resources and services.